DELTA 1 DEB, 21351

Orbit data source: Space-Track

DELTA 1 DEB, 21351 is space debris in SSO originally from a launch on Thu, 12 Jun 1975 UTC launched from the Air Force Western Test Range (AFWTR). Debris objects in space refer to the collection of defunct objects orbiting the Earth. Examples of debris include non-operational satellites, rocket bodies, and fragments generated from explosions, collisions, or faulty payload assembly.

Loading next visibility...
Identifier
21351, 1975-052BV
Orbit
SSO
Country
Flag of USUS
Related business
Manufacturer
Unknown
Mission
Spacecraft
Bus & Motor
Unknown
Mass
Unknown
Launch date (UTC)
1975-06-12 (51 years ago)
Launch vehicle
Unknown
Launch site
Air Force Western Test Range (AFWTR)
Object type
Payload
Rocket body
Debris
Shape & HBR
Unknown shape, 0.3 m
Radar Cross Section
Medium (>0.1 m² and <1 m²)

Expand to show TLE details & history
Last TLE update: 2 days ago

TLE from 2 days ago
0 DELTA 1 DEB
1 21351U 75052BV  26171.32194939  .00000014  00000-0  11657-3 0  9996
2 21351  99.8480 295.5484 0064694 311.1201 106.2922 13.31648628704620
Epoch: 2026-06-20T07:43Z
TLE epoch observation values (Epoch: 2026-06-20T07:43:36.427Z)
Latitude
56.88528°
Longitude
-104.24603°
Altitude
1,163.913 km
Speed
7.27 km/s
True Right ascension
18h 40m 46s
True Declination
56° 44' 10"
Sunlit
Object was in daylight at epoch
Visualization orbit readout
Latitude
Unknown
Longitude
Unknown
Altitude
Unknown
Speed
Unknown
Apparent Right ascension
Unknown
Apparent Declination
Unknown
Sunlit
N/A
Visualization observer readout
Local Sidereal Time
15:47:06
Azimuth
Unknown
Elevation
Unknown
Doppler factor
Unknown
Orbital elements
Apogee altitude
1,186.509 km
Perigee altitude
1,089.26 km
Semi-major axis
7,516.022 km
Eccentricity
0.00647
Inclination
99.848°
RAAN
295.5484°
Arg. of periapsis
311.1201°
True anomaly
107.00214°
Mean anomaly
106.2922°
Eccentric anomaly
106.64733°
Mean motion
3.3309 °/min
Orbital period
108.08 mins
BSTAR
0.00011657
Loading maneuver chart data...
Computing Atmospheric mass density...

Documentation

Showing up to 5 results
|